カタリナ-クリステンセン彗星

C/2006 YC ( Catalina-Christensen )

English version
Home page
Updated on April 3, 2008

---------------------------------------------------------------------

・ プロフィール

発見日 2006年12月16日
発見光度 20.0等, 19.4等
発見者 Catalina Sky Survey, E. J. Christensen (Mount Lemmon Survey)

・ 軌道要素

Epoch 2006 Sept. 22.0 TT = JDT 2454000.5
T 2006 Sept. 11.69807 TT                                MPC
q   4.9480646            (2000.0)            P               Q
z  -0.0000644      Peri.  335.50758     -0.75710137     -0.51141395
 +/-0.0000180      Node   154.28887     +0.63643413     -0.43690840
e   1.0003186      Incl.   69.55789     -0.14747581     +0.73997758

・ 光度変化

        m1 = 8.5 + 5 logΔ + 10.0 log r

---------------------------------------------------------------------

軌道要素はM.P.E.C. 2007-E04に掲載されたものです。
光度グラフはComet for Windowsで作成したものです。

---------------------------------------------------------------------

Copyright(C) Seiichi Yoshida (comet@aerith.net). All rights reserved.